Weather History for Southend, SK

Change the Weather History Date:

Monday, December 24, 2012

  Actual Average Record
Temperature  
Mean Temperature -12 °F -  
Max Temperature -5 °F - - ()
Min Temperature -20 °F - - ()
Degree Days  
Heating Degree Days 78    
Moisture  
Dew Point -13 °F    
Average Humidity 77    
Maximum Humidity 81    
Minimum Humidity 64    
Precipitation  
Precipitation 0.03 in - - ()
Sea Level Pressure  
Sea Level Pressure 30.52 in    
Wind  
Wind Speed 5 mph ()    
Max Wind Speed 9 mph    
Max Gust Speed -    
T = Trace of Precipitation, MM = Missing Value Source: Averaged Metar Reports

Daily Weather History Graph

Daily Weather History Graph

Search for Another Location

Airport:

Trip Planner

Search our weather history database for the weather conditions in past years. The results will help you decide how hot, cold, wet, or windy it might be!

Date:

Astronomy

Dec. 24, 2012 Rise Set
Actual Time 9:26 AM CST 4:19 PM CST
Civil Twilight 8:38 AM CST 5:07 PM CST
Nautical Twilight 7:48 AM CST 5:57 PM CST
Astronomical Twilight 7:02 AM CST 6:43 PM CST
Moon 2:03 PM CST (12/24) 5:50 AM CST (12/24)
Length of Visible Light 8h 29m
Length of Day
6h 53m
Waxing Gibbous, 88% of the Moon is Illuminated
Dec 24
Waxing Gibbous
Dec 28
Full
Jan 4
Last Quarter
Jan 11
New
Jan 18
First Quarter

Hourly Weather History & Observations

Time (CST) Temp. Windchill Dew Point Humidity Pressure Visibility Wind Dir Wind Speed Gust Speed Precip Events Conditions
12:00 AM -12 °F - -17 °F 67% 30.53 in - NW 3.5 mph - -  
12:00 AM -11.6 °F -21.0 °F -17.0 °F 77% 30.53 in - NW 3.5 mph - N/A   Unknown
1:00 AM -10.5 °F -19.8 °F -15.7 °F 78% 30.53 in - NW 3.5 mph - N/A   Unknown
2:00 AM -9.6 °F -18.8 °F -14.1 °F 81% 30.53 in - NNW 3.5 mph - N/A   Unknown
3:00 AM -8.7 °F -17.8 °F -13.5 °F 79% 30.53 in - NW 3.5 mph - N/A   Unknown
4:00 AM -9.2 °F -20.7 °F -14.1 °F 79% 30.53 in - NW 4.6 mph - N/A   Unknown
5:00 AM -9.0 °F -22.3 °F -13.5 °F 81% 30.53 in - NW 5.8 mph - N/A   Unknown
6:00 AM -9 °F - -14 °F 69% 30.53 in - NW 4.6 mph - -  
6:00 AM -8.9 °F -20.2 °F -13.7 °F 79% 30.53 in - NW 4.6 mph - N/A   Unknown
7:00 AM -9.0 °F -22.3 °F -13.9 °F 79% 30.53 in - NW 5.8 mph - N/A   Unknown
8:00 AM -8.7 °F -21.9 °F -13.2 °F 81% 30.53 in - NW 5.8 mph - N/A   Unknown
9:00 AM -8.5 °F -23.2 °F -12.8 °F 81% 30.52 in - NNW 6.9 mph - N/A   Unknown
10:00 AM -7.6 °F -20.6 °F -12.3 °F 80% 30.52 in - NNW 5.8 mph - N/A   Unknown
11:00 AM -7.1 °F -21.4 °F -12.3 °F 78% 30.53 in - NNW 6.9 mph - N/A   Unknown
12:00 PM -6 °F - -12 °F 64% 30.52 in - NNW 6.9 mph - -  
12:00 PM -6.2 °F -20.4 °F -11.7 °F 77% 30.52 in - NNW 6.9 mph - N/A   Unknown
1:00 PM -5.6 °F -19.7 °F -10.8 °F 78% 30.51 in - NW 6.9 mph - N/A   Unknown
2:00 PM -5.4 °F -21.9 °F -10.8 °F 77% 30.51 in - NW 9.2 mph - N/A   Unknown
3:00 PM -6.0 °F -16.9 °F -11.4 °F 77% 30.51 in - NW 4.6 mph - N/A   Unknown
4:00 PM -6.0 °F -20.1 °F -11.6 °F 77% 30.51 in - NW 6.9 mph - N/A   Unknown
5:00 PM -6.5 °F -17.5 °F -11.9 °F 77% 30.51 in - NW 4.6 mph - N/A   Unknown
6:00 PM -7 °F - -12 °F 67% 30.51 in - NW 5.8 mph - -  
6:00 PM -7.1 °F -19.9 °F -12.3 °F 78% 30.51 in - NW 5.8 mph - N/A   Unknown
7:00 PM -7.2 °F -23.0 °F -12.6 °F 77% 30.50 in - NW 8.1 mph - N/A   Unknown
8:00 PM -7.6 °F -22.1 °F -13.2 °F 77% 30.50 in - NW 6.9 mph - N/A   Unknown
9:00 PM -8.0 °F -22.5 °F -13.5 °F 77% 30.50 in - NW 6.9 mph - N/A   Unknown
10:00 PM -9.0 °F -20.4 °F -14.8 °F 76% 30.49 in - NW 4.6 mph - N/A   Unknown
11:00 PM -9.6 °F -18.8 °F -15.3 °F 76% 30.49 in - WNW 3.5 mph - N/A   Unknown